Weather in Kasan

Uzbekistan     39°02′29″N   65°35′07″E
temp.,
°C
wind,
m/s
gust,
m/s
humid.,
%
clouds,
%
prec.,
mm/h
press.,
hPa
HPBL,
m
25 february, thu
thu2523:00−2wnw5622100 0.0 1034549
02:00−6nw562581 0.0 1037451
05:00−7nw232741 0.0 1038273
08:00−7wnw222466 0.0 1040319
11:00−3wsw441754 0.0 1040895
14:00−1wnw44117 0.0 10391113
17:00−2nw541442 0.0 1038947
20:00−4nnw451995 0.0 1038652
26 february, fri
fri2623:00−5n462197 0.0 1037429
02:00−6n362584 0.0 1036257
05:00−7n352655 0.0 1034110
08:00−6nnw45240 0.0 1034211
11:00−2nnw33150 0.0 1033609
14:00+1nnw33120 0.0 1031860
17:00+2nnw33140 0.0 1029853
20:00−1nw342354 0.0 1030167
27 february, sat
sat2723:00−1nnw222477 0.0 102973
02:00−1nw1223100 0.0 102999
05:00−1nnw2225100 0.0 1029110
08:00−1nne112598 0.0 102946
11:00+3s111662 0.0 1030588
14:00+6sw22180 0.0 10281092
17:00+7sw12180 0.0 10261226
20:00+5n34230 0.0 102775
28 february, sun
sun2823:00+3ene33360 0.0 102647
02:00+2ene33410 0.0 102534
05:00+2ne34430 0.0 102345
08:00+2ne34460 0.0 102369
11:00+10ne34290 0.0 1021445
14:00+14ne33180 0.0 1018939
17:00+15ene22170 0.0 10171065
20:00+11e23270 0.0 101822
1 march, mon
mon123:00+9ese233121 0.0 101822
02:00+8se343130 0.0 101823
05:00+7ese343816 0.0 101734
08:00+8se34280 0.0 101827
11:00+15ssw46200 0.0 1017402
14:00+21ssw911110 0.0 10171846
17:00+20sw79150 0.0 10161528
20:00+14sw34240 0.0 101831